Regional Weather Roundup
Issued by NWS

Home | Current Version | Previous Version | Graphics & Text | Print | Product List | Glossary On
Versions: 1 2 3 4 5 6 7 8 9 10 11 12 13 14 15 16 17 18 19 20 21 22 23 24 25 26 27 28 29 30 31 32 33 34 35 36 37 38 39 40 41 42 43 44 45 46 47 48 49 50
000
ASUS43 KFSD 270210
RWRSD

WEATHER ROUNDUP FOR SOUTH DAKOTA
NATIONAL WEATHER SERVICE SIOUX FALLS SD
800 PM CST THU FEB 26 2015

NOTE: "FAIR" INDICATES FEW OR NO CLOUDS BELOW 12,000 FEET WITH NO
SIGNIFICANT WEATHER AND/OR OBSTRUCTIONS TO VISIBILITY.


SDZ001>005-009-010-012>017-270300-
NORTHWEST AND NORTH CENTRAL SOUTH DAKOTA

CITY           SKY/WX    TMP DP  RH WIND       PRES   REMARKS
BUFFALO          N/A      5  -6  60 NE6       30.32F WCI  -6
FAITH            N/A      4  -6  63 E5        30.44R WCI  -5
MOBRIDGE       CLEAR     -4 -10  75 N3        30.49S
$$

SDZ012>016-024>037-041>051-057-063-072>074-270300-
SOUTHWEST AND SOUTH CENTRAL SOUTH DAKOTA

CITY           SKY/WX    TMP DP  RH WIND       PRES   REMARKS
RAPID CTY ARPT CLEAR     -2  -9  72 NW7       30.39S WCI -15
PIERRE         CLEAR      4  -4  69 NE5       30.52S WCI  -5
CUSTER         CLEAR     -6 -11  79 NE3       30.15S
PHILIP         CLEAR      4  -7  60 NE6       30.48S WCI  -7
PINE RIDGE     CLEAR      3  -4  72 E5        30.38R WCI  -6
WINNER         FAIR       3  -9  57 NE7       30.50R WCI  -9
$$

SDZ004>011-016>023-039-040-270300-
NORTHEAST SOUTH DAKOTA

CITY           SKY/WX    TMP DP  RH WIND       PRES   REMARKS
ABERDEEN       CLEAR     -1 -10  65 NW8       30.56R WCI -15
WATERTOWN      CLEAR     -4 -10  75 NW6       30.48R WCI -16
SISSETON         N/A     -4 -10  75 NW7       30.53R WCI -18
$$

SDZ017-020-022-023-036>040-048>070-270300-
SOUTHEAST SOUTH DAKOTA

CITY           SKY/WX    TMP DP  RH WIND       PRES   REMARKS
SIOUX FALLS    CLEAR     -2  -8  76 NW8       30.51S WCI -17
HURON          CLEAR    -10 -15  78 NW7       30.56S WCI -25
CHAMBERLAIN    CLEAR      3  -8  61 N5        30.53S WCI  -7
MITCHELL       CLEAR      0  -6  76 W6        30.58R WCI -12
YANKTON        CLEAR      3  -6  66 N8        30.56R WCI -10
$$

ABBREVIATIONS USED IN REMARKS
   TC - TEMPERATURE IN CELSIUS
  WCI - WIND CHILL INDEX
   HX - HEAT INDEX
  VSB - VISIBILITY




USA.gov is the U.S. government's official web portal to all federal, state and local government web resources and services.